INMARSAT 3-F5

Last updated on Sat Apr 13 2024 01:02:36 GMT+0100 (British Summer Time)

1 25153U 98006B 24103.31541796 -.00000297 00000+0 00000+0 0 9992 2 25153 7.8985 60.6388 0004713 313.9090 245.9639 1.00274877 95914
UTC large
Height (km)
Speed (km/s)
/
Latitude / Longitude
Inclination (degrees)
Orbital Period (minutes)
Azimuth
Elevation
Range (km)
Doppler Factor

Next 0 passes for location: London (51.5072 / 0.1276)

Sorry there are no passes over London.